Location: Huberhof
(49.2050°N, 7.4980°E)
Time: 05:21:15
(UTC+00:00)

Envisat - Pass Details

Date: 29 October 2020
Orbit: 764 x 766 km, 98.1° (Epoch: 25 November)

Event Time Altitude Azimuth Distance (km) Brightness Sun altitude
Rises 17:01:52 0° 182° (S) 3,221 6.4 -8.5°
Reaches altitude 10° 17:04:15 10° 189° (S) 2,299 5.7 -8.9°
Maximum altitude 17:09:06 45° 262° (W) 1,035 4.3 -9.6°
Drops below altitude 10° 17:14:00 10° 335° (NNW) 2,315 5.7 -10.4°
Sets 17:16:25 0° 342° (NNW) 3,246 6.4 -10.8°
